Theta_e
315 311 313 312 312 312 311 311 310 309 310 309 307 306 306 305 301 302 303 304 304 304 304 303 303 303 303 302 301 300 300 298 300 300 297 298 298 298 297 297 297 297 296 296
311 313 312 311 311 311 311 311 309 309 309 308 307 307 304 304 302 303 304 304 305 304 304 303 303 303 303 303 302 301 300 299 299 300 298 297 298 298 297 298 297 297 296 296
313 313 311 312 311 311 310 310 309 308 308 307 306 306 308 304 304 303 304 306 306 306 305 304 303 303 303 303 302 302 301 299 299 300 299 297 298 298 298 298 297 297 296 296
312 310 311 311 311 309 311 308 308 308 307 307 307 307 306 307 305 302 304 304 306 307 306 305 304 304 303 303 303 302 302 300 299 300 300 298 297 298 298 297 297 297 296 296
311 311 311 311 310 308 309 308 308 309 308 308 308 307 307 306 310 306 304 306 307 309 308 307 306 305 305 304 303 303 302 301 300 300 300 299 297 298 298 297 297 297 296 296
310 308 308 309 307 307 307 308 309 308 307 309 309 309 310 309 311 309 308 309 310 310 309 308 307 306 305 304 304 303 302 302 300 300 299 300 298 297 298 297 297 297 296 296
311 310 307 307 308 308 307 307 308 311 316 311 310 309 310 309 307 307 308 311 311 311 310 309 308 306 306 305 304 303 302 302 301 300 299 300 300 297 298 297 297 297 296 296
311 311 308 306 307 310 308 306 308 312 310 310 306 309 311 307 308 308 308 310 312 312 311 310 309 308 307 306 305 303 303 303 302 301 300 299 300 298 297 297 297 297 296 296
310 312 305 305 304 306 308 307 306 306 306 310 307 308 309 308 307 308 309 310 311 311 311 311 310 309 307 306 305 304 304 303 302 302 301 299 300 299 297 297 297 297 297 296
311 311 306 305 305 304 306 304 308 305 309 311 307 308 311 312 310 306 307 311 312 311 311 310 310 309 308 307 306 305 304 303 303 302 301 300 299 300 298 297 297 297 297 296
308 309 309 306 305 305 303 304 304 305 307 310 308 308 305 309 309 308 308 311 312 313 312 311 310 310 308 307 306 305 304 304 303 302 301 300 299 300 299 297 297 297 297 296
309 306 309 309 305 305 304 304 303 306 307 304 303 307 307 305 307 309 310 312 313 312 313 313 311 309 308 308 307 306 305 304 303 302 302 301 300 299 300 299 297 297 297 296
307 307 309 310 308 306 305 304 304 304 305 306 307 308 306 307 307 309 309 311 312 311 312 312 312 312 310 308 307 306 305 304 303 302 302 301 300 299 300 300 298 297 297 297
309 306 309 312 312 308 307 304 303 306 303 305 307 310 310 310 307 310 311 311 311 311 309 309 310 310 310 309 308 307 306 305 303 302 302 301 301 300 300 300 299 297 297 297
307 309 306 307 308 309 309 309 304 304 305 308 313 308 308 310 307 309 310 311 311 310 309 310 310 310 310 310 308 307 306 305 304 303 302 302 301 301 300 299 300 298 297 297
304 308 306 310 310 308 310 310 308 305 305 304 307 307 309 309 310 309 310 311 310 310 309 308 309 309 309 309 309 308 307 306 305 303 303 302 301 301 300 299 299 299 298 297
305 306 308 309 310 310 311 312 310 308 305 308 310 311 311 307 307 309 311 311 310 310 310 309 308 308 308 309 308 308 308 307 305 304 303 302 301 301 301 300 299 299 299 297
305 305 305 307 312 315 314 310 310 309 311 307 306 308 309 309 310 310 311 311 309 310 310 308 308 308 307 307 309 308 307 306 306 305 304 303 302 301 300 300 299 299 299 299
306 306 306 311 310 311 313 313 309 309 312 308 308 308 309 309 309 310 311 310 310 310 309 309 309 308 307 307 307 308 308 307 305 305 304 304 302 301 301 300 300 299 299 299
306 306 310 304 311 315 312 311 310 308 310 310 308 308 307 307 307 305 310 311 312 312 313 313 313 313 312 310 307 306 306 306 306 305 305 303 302 302 301 300 300 300 299 299
306 304 310 311 311 310 310 309 309 312 312 311 310 310 308 305 309 311 311 312 313 313 313 313 313 313 313 313 313 312 308 306 304 304 303 303 302 301 301 301 300 300 299 298
308 308 306 305 308 315 311 307 311 312 313 313 312 311 310 311 311 312 311 312 313 313 312 312 312 313 313 313 313 312 313 310 306 304 303 303 302 301 301 300 300 300 300 299
309 310 309 309 311 311 310 313 313 313 314 313 313 312 311 311 312 312 312 312 311 312 312 311 312 313 313 312 312 312 312 311 311 308 305 303 302 301 301 300 300 300 299 299
306 307 308 308 307 308 310 313 313 313 313 314 313 313 312 312 312 312 311 311 311 310 310 310 313 313 312 312 312 312 311 311 310 309 310 306 303 302 301 300 300 300 299 299
310 307 307 307 308 310 311 312 313 313 314 314 313 312 312 311 311 311 310 310 311 312 311 312 313 312 312 311 310 310 310 310 309 309 308 308 306 303 302 301 300 300 300 299
309 308 310 312 312 314 314 314 314 314 314 315 314 313 313 310 310 310 310 311 311 312 312 313 312 311 311 310 309 308 308 308 308 308 308 307 306 304 302 301 301 300 299 299
Wind_Speed
3 5 1 3 5 4 2 3 4 4 1 3 7 11 12 20 29 28 31 32 32 32 26 25 23 20 20 19 18 15 15 14 13 11 11 10 9 10 10 9 9 7 8 8
6 1 2 1 1 1 2 3 6 3 2 5 6 16 13 18 26 38 38 36 35 33 30 28 29 27 25 22 18 17 16 16 14 13 12 12 11 12 12 11 9 9 8 8
4 1 1 2 3 3 1 2 3 4 6 2 7 8 3 2 14 26 36 36 35 35 32 31 32 32 28 26 23 20 17 17 16 15 14 14 14 15 14 12 11 10 9 9
1 3 1 1 1 2 2 0 2 4 5 3 4 5 6 1 5 11 28 37 39 37 35 32 33 33 32 28 24 22 20 19 18 17 16 15 15 15 13 13 12 11 10 10
4 1 1 1 0 0 3 2 1 1 2 4 3 3 8 3 6 8 22 32 36 36 34 34 35 33 28 28 26 25 22 21 21 20 18 17 17 16 15 15 14 13 12 11
1 1 1 1 2 2 1 1 5 4 3 2 3 3 6 3 3 6 4 19 29 30 33 32 30 31 33 32 31 29 27 24 23 22 20 19 18 17 17 16 15 14 13 12
2 1 1 1 1 2 5 5 4 4 4 5 1 1 10 6 5 5 9 12 12 24 28 31 31 34 35 35 35 34 31 28 25 24 22 21 19 19 18 17 16 15 14 13
2 4 2 2 1 2 2 4 4 4 2 5 3 6 6 4 7 7 7 8 7 10 20 28 29 30 32 33 36 37 35 31 28 25 23 22 21 20 19 18 17 16 15 14
4 3 1 1 2 1 2 1 3 4 2 2 4 7 10 4 6 8 8 8 8 9 14 21 25 28 29 31 36 38 37 33 30 27 24 24 23 22 20 18 19 17 16 14
4 2 1 0 2 3 1 4 2 3 2 5 5 6 5 4 6 7 8 10 10 12 14 18 22 25 28 29 31 37 37 34 29 27 26 25 24 23 21 20 21 18 16 17
4 3 1 1 5 7 2 1 3 3 4 4 2 6 7 6 2 6 7 5 9 13 16 20 23 25 26 28 30 34 38 37 33 30 27 27 26 25 23 23 21 20 18 18
5 5 3 6 1 2 3 6 6 4 4 2 4 7 5 9 8 5 8 8 11 20 24 22 24 26 29 30 31 32 35 37 34 31 29 28 26 26 26 25 22 21 20 19
7 2 1 4 2 3 4 5 3 4 3 6 4 6 1 4 7 9 12 24 23 30 19 22 24 23 27 31 33 33 33 35 34 32 31 30 29 29 28 26 23 22 22 21
6 2 6 7 5 4 4 6 6 6 3 4 8 16 12 14 8 21 26 26 18 22 23 24 23 23 25 28 32 32 32 33 33 33 33 32 31 30 28 26 24 24 23 23
3 6 6 6 6 3 5 7 9 10 9 9 21 14 12 16 8 16 26 26 19 21 21 17 18 19 19 21 25 28 29 31 32 33 34 34 31 29 28 28 27 25 25 24
1 3 5 5 6 8 7 11 12 14 10 12 17 26 17 31 31 28 20 16 17 16 18 17 15 18 18 12 15 20 23 25 28 32 33 32 32 30 29 29 28 28 27 26
7 5 3 6 2 3 6 18 16 9 9 11 15 24 20 8 15 17 20 15 16 15 18 17 16 16 16 14 13 17 19 21 23 27 30 31 31 31 30 29 29 30 29 26
7 6 3 3 2 7 9 2 5 12 17 10 10 16 18 24 22 18 15 15 12 15 15 13 15 14 14 13 13 14 18 21 23 24 25 28 30 30 30 30 31 30 29 29
7 6 1 3 6 8 13 10 7 8 14 8 15 18 22 15 9 18 13 11 8 10 7 10 13 14 13 12 12 13 15 18 22 24 23 24 26 28 29 31 31 30 30 29
6 4 5 3 4 7 7 3 6 7 9 13 14 16 6 10 2 5 8 6 3 1 3 5 9 12 14 14 13 13 14 16 19 19 20 21 22 24 27 28 29 28 29 29
4 0 9 9 7 8 8 6 9 3 8 4 5 9 11 6 10 7 10 8 6 3 2 5 7 10 13 15 16 16 15 15 13 15 17 19 21 22 23 24 26 27 27 29
9 8 5 2 3 13 13 7 9 8 10 7 6 10 14 15 10 10 10 11 10 8 7 8 11 10 13 15 17 18 17 15 14 15 17 19 19 21 24 25 25 26 28 29
5 8 6 11 9 5 23 13 22 12 16 14 12 14 15 17 18 15 14 14 17 16 14 12 14 18 17 17 20 22 19 20 19 20 20 20 20 21 23 25 27 28 29 31
4 7 4 2 8 19 22 25 26 19 23 19 17 18 20 21 21 22 19 19 19 19 19 17 17 20 24 24 25 27 25 23 24 24 24 23 23 23 24 26 28 29 31 31
6 13 7 7 9 17 22 28 36 34 32 29 26 24 24 26 26 25 24 22 19 18 18 21 22 24 29 31 31 29 28 27 28 29 28 27 26 25 26 27 28 29 30 30
14 9 8 11 13 21 24 30 36 37 33 34 34 32 30 28 29 27 23 20 20 21 22 24 26 30 33 34 35 34 30 29 27 29 30 29 28 28 28 28 29 29 29 29
Wind_Direction
32 60 227 234 196 203 251 272 284 258 178 198 236 260 261 217 213 220 221 220 222 227 230 226 230 234 238 237 241 249 252 247 244 252 256 257 264 260 267 271 269 299 311 312
22 256 212 235 217 315 303 306 299 293 128 186 294 274 242 194 215 215 221 225 228 231 229 226 226 231 235 239 243 246 250 246 242 248 256 256 264 264 262 260 271 285 294 305
155 277 356 41 25 16 317 258 298 257 319 215 313 294 318 210 224 224 229 233 235 234 232 226 226 231 235 236 238 246 255 250 242 245 250 252 255 258 258 264 267 277 288 297
212 332 49 37 58 131 303 249 334 330 25 285 16 284 306 329 257 227 231 232 235 234 235 234 231 231 234 238 238 242 250 248 243 242 247 252 256 258 265 263 266 272 281 285
252 123 34 313 288 320 231 36 15 358 44 14 347 68 270 356 293 251 236 234 236 235 234 233 232 235 238 237 237 240 246 247 244 243 245 250 253 255 257 261 265 271 275 281
254 21 55 148 103 74 14 70 38 57 69 10 272 134 287 247 236 312 309 247 240 236 234 237 237 238 239 238 236 236 241 247 246 245 245 249 253 252 255 260 265 269 271 277
338 245 331 77 79 45 66 47 335 345 15 227 334 77 247 265 261 250 284 306 273 245 239 237 237 235 236 237 236 235 239 244 246 247 247 249 252 252 254 256 263 267 271 274
150 322 163 5 107 151 87 134 150 273 279 279 315 238 251 224 289 283 282 296 289 256 240 238 241 242 242 239 237 236 240 245 245 248 249 250 251 252 254 255 260 265 268 271
155 280 80 74 114 116 173 163 176 105 31 17 254 287 308 290 285 273 282 295 292 276 252 246 245 247 246 242 239 238 240 244 246 250 251 249 251 253 255 256 259 262 265 270
199 325 176 182 111 42 129 158 76 16 268 277 293 284 242 330 334 329 279 276 308 300 281 265 256 252 250 248 244 241 242 245 250 252 252 252 252 254 255 253 256 262 264 268
140 114 236 87 201 179 110 248 57 123 156 204 289 270 214 232 290 302 306 332 337 330 314 292 275 265 257 250 247 244 241 242 244 246 250 251 250 251 253 253 255 259 261 265
186 147 223 221 176 150 175 200 158 130 228 225 142 268 225 236 266 282 275 323 304 321 313 290 285 272 261 254 249 244 243 242 245 248 251 253 251 248 250 252 254 255 259 262
183 203 0 335 31 358 228 203 145 105 89 206 142 260 272 266 270 270 279 307 316 311 305 303 295 286 269 258 252 248 245 245 247 247 250 253 251 247 248 252 254 255 257 260
147 145 176 206 212 137 206 192 179 146 131 217 219 266 289 283 277 288 294 307 308 314 315 309 304 293 279 264 255 251 250 248 248 248 250 252 251 250 250 252 253 255 256 259
138 220 188 259 229 213 239 215 183 195 209 198 271 242 244 268 274 280 296 301 299 311 326 327 321 320 298 275 258 253 253 252 250 250 250 253 253 252 251 251 251 253 254 258
139 245 162 267 252 209 252 248 214 221 239 248 260 275 263 278 280 277 286 289 294 310 327 337 327 324 329 295 262 255 258 259 254 251 253 255 254 252 250 251 252 254 255 257
160 160 129 250 274 321 270 243 225 209 214 223 239 254 279 258 253 268 283 270 283 304 322 327 334 335 321 315 277 261 264 263 261 258 257 257 256 254 252 252 252 253 255 258
155 146 143 234 54 243 244 68 208 214 252 220 274 264 259 259 274 285 270 272 270 297 312 328 335 342 341 317 301 276 264 263 261 259 259 259 258 257 256 254 253 253 255 257
176 131 196 195 209 298 302 275 174 177 259 197 228 255 259 265 269 278 255 242 281 309 325 333 342 348 349 336 313 288 269 268 268 263 260 261 261 260 258 256 255 255 255 258
96 63 165 142 211 238 231 259 150 137 277 243 217 249 188 158 160 254 173 184 226 26 42 26 11 4 356 346 333 316 300 280 272 274 275 271 266 261 259 260 259 259 258 260
131 202 214 225 244 278 245 178 152 149 260 198 212 241 198 193 210 173 187 202 220 232 323 347 360 355 351 347 343 339 321 313 307 281 273 268 266 262 260 260 258 259 259 259
166 172 194 129 210 274 191 127 181 209 228 229 221 228 215 218 209 211 221 224 230 243 270 303 317 327 334 334 330 329 330 319 301 282 273 268 263 260 258 256 255 254 255 256
223 191 184 189 205 242 188 219 222 240 227 231 239 239 234 230 226 232 241 246 244 248 260 282 297 307 316 325 322 318 319 314 307 294 285 276 269 262 258 254 254 253 252 253
241 174 222 114 209 240 240 238 245 243 244 252 249 241 238 236 243 245 248 254 255 256 260 275 285 295 302 311 309 307 304 302 299 296 290 282 273 268 261 257 254 252 251 251
186 159 185 258 277 280 262 257 257 250 247 249 254 243 245 243 242 247 253 254 256 262 262 271 284 294 300 302 300 297 295 295 295 294 288 281 275 268 266 261 259 258 258 255
187 191 200 240 215 231 255 260 264 265 260 257 253 245 245 241 245 252 252 259 265 267 271 281 291 298 298 295 294 293 290 288 286 286 287 285 281 274 269 265 263 260 259 257